Theta_e
302 303 305 304 303 294 295 297 293 297 298 297 291 294 294 294 290 288 293 296 295 298 302 305 310 311 313 316 318 318 319 319 320 320 321 322 323 325 326 328 329 331 332 333 334 334 335 337 337 338 339 341 343 343 343 343 344 345 346 348 349 349 350
303 305 304 305 305 300 293 293 296 298 300 300 294 286 289 288 284 286 292 292 291 296 292 304 306 307 311 313 315 317 318 318 318 320 321 322 323 324 326 328 330 331 332 334 334 335 336 336 337 338 339 341 343 344 344 344 344 344 346 347 349 349 349
302 304 303 301 303 305 302 297 299 298 288 290 289 287 286 284 285 285 286 291 293 294 296 301 303 306 308 310 313 315 316 317 318 319 321 323 324 324 325 326 328 330 331 333 334 335 336 337 339 339 340 341 343 344 345 345 344 346 347 347 348 350 350
301 301 300 294 299 302 303 299 297 299 294 293 289 292 287 288 283 286 284 289 291 297 297 300 304 306 309 311 312 313 315 317 318 320 321 322 323 324 325 326 327 329 331 332 334 335 335 336 337 339 340 341 342 344 346 346 346 346 347 348 348 348 349
299 294 297 297 298 297 298 296 295 295 297 295 297 294 293 290 283 281 284 285 289 293 299 303 304 306 309 310 311 313 315 317 319 320 322 323 323 324 325 326 327 328 330 331 333 335 336 337 338 339 340 340 342 343 345 346 346 346 347 348 349 349 349
294 294 300 302 301 301 300 299 296 296 294 290 288 289 294 291 289 284 283 287 293 294 304 306 305 306 309 312 313 314 315 317 319 321 322 323 324 324 325 326 327 328 329 330 332 334 336 336 336 338 340 340 341 342 344 346 347 347 347 348 349 349 350
296 298 301 304 305 304 303 301 299 298 293 291 290 284 288 292 291 294 291 287 293 299 304 307 307 307 308 310 313 314 316 317 319 321 322 323 325 325 325 327 328 329 329 330 331 332 334 335 335 337 339 340 341 342 343 346 347 347 348 348 350 351 350
298 300 301 300 302 303 301 301 302 300 296 296 296 293 290 291 289 290 288 289 290 300 305 306 306 307 307 308 312 314 316 317 318 320 322 322 323 325 326 327 328 329 330 330 331 331 332 333 334 336 338 340 340 341 343 345 346 347 348 349 350 351 351
290 294 297 297 299 300 298 298 301 302 302 299 295 293 293 292 290 290 288 288 291 298 307 306 305 306 307 307 309 313 314 316 318 319 321 322 323 324 325 326 326 328 329 329 330 331 332 333 334 336 338 339 340 341 342 344 346 348 349 350 350 350 351
284 285 286 289 292 295 297 298 300 301 301 299 296 294 291 290 291 291 288 288 289 296 300 306 304 303 304 305 307 311 314 315 316 318 319 320 322 323 325 326 326 326 328 329 330 331 332 333 334 336 338 339 340 341 342 344 345 347 348 350 350 350 350
289 291 293 296 299 295 296 297 298 299 301 302 300 297 292 291 288 291 291 292 294 298 301 301 303 302 303 304 303 308 310 311 314 316 318 319 321 322 324 326 326 326 327 328 330 331 333 334 334 336 338 339 340 340 342 343 345 347 348 349 350 349 350
296 297 296 299 300 298 298 297 298 299 299 300 299 296 294 294 290 291 293 294 295 295 295 297 299 303 302 302 301 305 307 310 312 314 316 326 320 322 324 325 326 325 326 327 329 331 332 334 335 336 338 339 340 341 341 343 345 347 349 349 349 349 350
297 298 298 300 299 300 299 299 299 298 299 298 297 298 295 296 295 294 295 295 295 295 298 300 301 303 305 304 303 304 306 308 311 313 314 317 320 321 323 324 326 326 326 327 329 330 332 334 335 336 338 339 341 341 342 344 345 347 349 349 349 350 350
296 297 298 299 298 298 298 299 299 299 299 298 299 299 297 297 297 298 298 297 297 299 300 301 304 304 304 304 306 308 308 309 312 313 313 315 318 320 321 323 325 326 327 327 328 330 332 334 335 336 338 339 340 341 342 344 345 347 349 349 349 350 350
293 296 299 298 298 298 296 297 298 299 300 300 300 300 299 299 298 298 296 296 298 300 301 303 304 304 303 308 308 309 308 311 315 314 315 315 317 320 322 322 324 325 326 327 328 330 332 334 335 337 338 340 341 342 343 344 346 348 349 349 350 350 350
290 295 296 297 298 298 297 297 297 297 298 297 299 298 299 297 296 297 295 293 295 299 301 301 302 301 303 303 306 306 308 313 317 316 317 316 316 318 321 322 324 325 326 327 328 329 331 334 335 337 339 340 341 341 343 344 346 349 349 349 349 350 351
288 294 296 296 297 295 293 295 298 299 298 299 300 300 302 301 301 297 295 297 299 301 303 301 301 302 301 301 301 304 307 309 314 317 317 318 318 318 320 322 324 324 325 326 328 330 331 334 336 338 340 340 341 342 343 345 347 349 349 350 350 350 351
289 293 294 296 292 286 291 301 302 301 299 298 297 297 299 300 301 300 302 302 303 302 300 300 301 302 303 304 305 306 308 309 311 316 318 318 319 319 321 323 324 325 326 327 329 330 332 334 337 338 340 341 342 344 344 346 346 348 349 350 350 350 351
287 292 293 291 285 289 299 302 302 303 303 301 299 299 299 301 300 300 301 302 302 301 301 303 302 304 304 307 307 306 307 309 313 316 319 318 319 320 320 320 322 323 324 326 327 329 331 334 336 338 339 341 343 343 344 344 346 347 348 349 350 351 351
291 290 289 283 283 295 301 303 303 304 302 300 301 301 306 308 303 300 300 301 302 301 302 303 304 312 312 314 317 316 316 313 310 313 316 319 322 321 321 322 322 323 324 325 326 329 333 335 336 337 338 341 342 342 344 344 345 346 347 348 349 350 351
285 287 288 289 297 297 300 302 302 305 298 300 301 296 300 308 312 302 301 303 305 307 307 305 308 310 312 312 313 317 318 318 315 313 314 316 320 322 323 323 323 325 326 327 328 331 333 335 336 337 339 340 341 342 343 344 344 345 346 346 347 349 350
291 287 285 288 287 287 291 303 309 312 313 311 306 303 302 309 312 312 308 309 309 310 311 309 310 309 309 308 311 315 320 319 319 320 316 312 313 318 324 326 327 328 327 329 332 333 333 335 336 338 338 339 340 341 342 343 343 343 344 345 347 348 349
293 291 286 285 285 288 298 305 308 312 313 312 311 303 298 307 310 314 314 311 311 311 311 310 308 305 304 306 310 316 319 319 326 329 330 329 330 317 313 320 327 328 329 330 331 333 333 334 336 337 338 339 340 341 342 342 343 342 343 344 346 347 349
293 292 289 286 290 295 302 306 310 311 314 314 304 294 294 306 314 315 315 314 314 312 310 310 306 307 306 308 311 318 325 323 328 328 328 331 333 338 336 319 321 328 331 333 330 331 332 333 335 337 337 338 339 340 342 343 342 342 343 344 346 348 349
297 296 290 292 294 304 308 309 311 312 314 307 297 291 300 310 314 317 316 316 315 314 314 314 313 313 312 315 319 329 330 331 333 335 334 331 331 333 337 339 337 328 330 332 332 334 335 335 336 337 338 337 337 339 341 342 342 344 345 346 346 347 348
294 294 291 291 295 303 310 312 312 315 308 294 291 301 309 315 317 319 319 318 318 318 318 319 320 321 325 329 332 335 336 334 333 335 336 336 337 338 339 341 341 338 328 331 333 334 335 338 339 338 339 338 337 337 338 340 343 346 347 346 346 346 347
298 297 294 290 286 299 312 312 311 314 303 301 310 312 315 320 320 322 323 322 322 325 325 326 328 332 333 333 333 333 334 333 332 332 332 332 333 333 335 337 340 339 334 335 336 336 339 340 340 342 338 337 337 338 337 339 343 345 346 347 346 346 346
290 291 288 289 301 307 314 311 304 309 311 313 313 313 313 321 321 323 325 325 326 330 330 330 330 331 331 331 331 332 332 331 331 331 331 331 332 334 336 338 338 337 334 334 334 335 336 337 337 339 342 340 338 337 337 339 342 343 342 343 344 344 344
299 295 299 309 312 314 316 315 313 314 315 315 314 313 321 322 321 322 325 324 326 329 330 330 330 329 330 330 331 330 329 330 329 328 328 329 330 332 333 335 337 335 333 332 333 334 336 337 338 337 338 340 339 340 340 341 342 342 343 342 342 342 343
312 313 314 316 315 315 313 316 318 315 314 315 315 313 313 318 321 322 324 324 325 326 328 328 326 327 327 327 328 329 329 329 329 329 328 328 330 332 334 334 334 334 334 334 335 335 335 337 338 340 339 337 341 339 339 342 345 346 346 344 343 342 341
300 293 311 311 312 314 313 314 317 317 315 314 316 314 314 314 316 318 320 323 324 326 327 326 325 326 327 327 327 328 328 328 329 329 328 328 329 330 331 332 333 332 333 333 333 334 334 336 338 340 341 340 340 341 340 343 347 347 347 345 344 342 341
299 302 309 313 316 314 315 314 313 313 315 315 317 316 316 317 316 316 317 320 321 324 324 325 326 325 327 326 326 327 327 328 328 329 329 328 328 329 329 329 329 329 330 330 331 332 332 333 334 336 338 339 339 339 340 342 346 346 346 346 346 345 343
306 311 313 314 315 314 312 314 314 315 315 316 316 316 316 316 317 317 317 318 318 320 320 322 322 321 321 324 325 326 327 328 329 329 329 328 327 328 328 329 328 327 327 327 326 328 328 330 332 332 333 335 336 336 338 339 340 342 343 344 347 348 348
300 301 305 312 303 302 309 311 313 314 315 317 316 316 315 315 314 316 316 316 317 318 318 319 319 318 319 320 323 324 326 327 329 330 330 331 331 330 329 330 329 329 330 329 328 327 326 327 329 330 331 333 334 336 337 338 339 339 338 339 339 341 342
298 309 313 313 310 308 310 312 313 315 317 317 315 314 314 313 314 314 315 315 315 316 317 318 318 318 319 320 323 323 324 326 328 330 330 330 332 333 333 332 331 331 330 332 329 329 328 329 327 327 329 332 333 335 335 335 335 335 336 337 334 334 337
311 313 312 315 311 307 310 313 313 314 317 317 315 315 316 314 312 311 311 312 314 314 316 317 318 318 319 321 323 323 324 326 327 328 329 330 331 332 334 334 334 334 334 334 334 333 331 329 327 327 329 332 333 336 337 336 334 332 333 334 333 331 330
308 316 316 314 312 313 314 314 314 314 316 318 315 315 315 314 313 311 309 309 311 313 314 315 316 318 319 320 322 323 324 325 327 328 329 330 331 331 332 332 333 333 333 333 334 334 334 332 331 332 332 333 334 336 338 338 336 334 333 331 330 329 329
Wind_Speed
9 14 8 6 10 9 4 8 12 15 6 8 5 5 3 0 2 9 2 4 5 7 5 6 9 13 15 16 19 19 19 18 13 14 15 17 18 19 18 19 19 20 18 18 19 19 18 18 18 19 20 20 21 20 19 20 19 18 19 20 20 18 18
12 8 8 10 12 7 5 8 10 2 2 7 8 8 4 7 9 7 2 9 4 3 8 3 5 8 12 12 15 17 18 14 14 16 17 18 20 20 22 22 20 20 21 21 20 19 20 20 21 21 21 20 19 19 21 22 20 20 19 19 18 17 17
8 7 5 5 7 11 15 9 7 10 4 9 3 2 11 7 9 5 3 2 6 9 6 3 6 9 12 10 11 14 17 12 14 16 17 18 19 19 18 18 18 18 18 19 20 20 21 20 21 21 21 20 18 17 18 20 22 23 22 19 19 17 18
7 5 8 13 12 8 6 4 7 5 7 8 8 9 2 4 5 3 7 3 12 6 7 8 9 9 10 13 13 15 17 16 15 15 15 17 18 18 18 18 19 20 20 21 21 21 21 20 19 18 18 16 19 19 19 18 19 18 18 18 18 18 18
6 7 5 12 12 13 10 6 7 4 4 1 6 2 9 7 4 5 2 6 8 6 7 9 10 11 12 11 12 14 16 15 16 17 17 17 19 19 19 19 19 20 20 20 21 21 21 20 19 17 16 19 20 18 18 20 20 20 20 20 18 17 16
8 4 7 13 13 13 11 12 12 10 8 4 8 10 1 3 6 6 5 15 6 6 4 10 10 9 10 13 15 15 15 16 18 18 17 18 19 20 19 19 19 19 21 21 21 20 18 16 15 15 16 17 17 18 19 19 18 18 20 19 19 18 16
9 11 11 11 15 12 12 11 11 9 5 5 5 6 8 0 5 4 4 4 13 7 8 10 10 10 10 10 10 12 13 15 15 17 19 20 19 19 18 19 19 20 20 20 19 20 18 18 17 18 18 17 18 20 19 18 19 20 20 20 18 16 16
4 5 5 4 6 9 10 10 10 11 12 10 12 9 6 7 2 3 1 7 3 4 6 8 8 9 11 6 7 12 10 10 12 14 16 17 16 15 17 18 17 17 17 17 15 14 16 16 15 16 17 18 18 18 19 18 21 22 19 17 16 17 17
6 6 5 6 1 3 6 7 11 13 13 15 5 4 1 5 8 8 7 15 1 3 2 7 3 2 4 6 6 8 10 9 12 14 13 12 14 16 16 16 16 16 15 15 15 16 16 16 16 17 18 17 17 18 18 19 20 20 18 16 16 17 17
12 11 13 12 9 8 1 3 9 14 18 16 9 13 4 11 3 7 6 3 5 6 6 3 4 6 5 5 6 6 10 11 12 10 9 10 10 11 11 14 15 16 17 16 15 15 15 17 17 17 17 17 18 18 19 19 18 17 17 16 17 17 17
8 5 5 4 7 5 14 12 9 12 14 18 16 5 6 13 4 9 8 7 2 2 2 3 5 6 8 9 7 8 8 8 9 9 12 12 13 12 12 14 15 14 12 15 17 18 17 18 17 16 18 18 18 18 19 18 17 17 17 17 17 18 17
5 6 12 15 9 13 13 13 15 12 11 13 17 17 16 8 7 15 5 7 7 7 3 5 7 8 8 9 7 7 6 6 9 12 12 13 11 11 12 12 13 14 16 16 16 17 18 16 16 16 16 17 19 19 19 18 16 16 14 16 17 18 18
12 11 13 15 13 14 12 15 16 15 14 12 17 19 7 13 13 17 7 9 8 7 8 8 8 9 9 11 7 9 10 6 6 6 8 11 14 16 17 17 16 14 15 14 16 16 16 16 17 18 17 16 15 14 15 16 17 19 18 18 18 18 17
15 14 13 13 12 10 10 14 16 17 16 18 19 16 11 15 12 9 11 10 14 11 11 12 12 12 11 7 3 1 3 7 10 8 9 12 14 14 15 16 17 16 17 16 16 16 16 17 18 18 16 16 16 17 17 17 18 18 16 18 18 18 19
11 14 11 8 8 12 12 10 13 17 18 19 20 16 14 11 12 10 7 7 11 8 7 10 11 11 3 2 3 7 6 5 8 9 11 12 12 12 13 13 13 14 15 14 11 12 15 17 18 18 17 17 17 18 17 17 18 16 17 17 18 19 20
9 6 7 15 16 13 13 15 13 14 18 19 17 15 10 9 12 12 9 8 9 8 9 6 5 5 5 7 6 7 6 7 7 8 10 10 9 9 11 13 14 16 17 17 17 17 16 16 17 17 17 16 16 17 17 17 17 16 17 17 18 19 19
5 10 8 14 16 11 7 16 23 18 12 11 10 10 11 16 16 14 15 16 8 14 8 5 7 9 9 7 7 7 9 7 7 9 10 11 10 10 10 10 11 13 15 16 17 18 19 18 18 19 19 16 17 18 17 18 15 15 17 18 18 17 15
8 17 14 11 5 7 17 15 11 13 15 11 10 9 11 9 11 11 12 14 13 12 4 8 9 10 11 12 11 7 8 8 6 6 7 10 11 12 14 15 15 15 16 16 17 19 19 19 20 20 18 18 19 18 18 14 15 16 17 17 16 17 15
7 9 8 7 5 10 10 3 6 13 12 9 11 11 13 14 11 5 1 6 8 8 8 10 8 4 4 1 2 4 5 4 6 8 8 8 8 11 11 10 10 9 9 9 10 11 13 15 15 14 14 14 11 9 9 12 15 16 17 17 17 16 16
4 4 2 3 6 5 9 6 2 3 9 7 10 6 4 4 6 10 9 6 7 6 7 6 6 8 5 1 0 0 4 2 6 6 8 9 7 9 10 12 12 9 9 11 13 15 14 13 13 14 16 14 12 13 13 16 16 16 16 16 17 15 15
5 5 5 8 11 16 10 1 5 8 5 2 12 11 8 3 2 6 10 10 6 4 4 9 8 4 1 4 4 4 4 5 4 5 8 6 6 6 5 6 10 10 11 14 16 11 8 9 11 13 13 14 16 15 14 14 15 16 16 16 16 17 17
6 5 6 5 3 4 3 2 11 11 12 15 13 11 6 3 3 5 6 11 8 7 9 12 9 3 8 3 2 6 7 5 7 7 4 3 4 5 5 6 6 6 5 3 2 7 11 12 14 14 11 10 10 12 14 14 15 14 15 17 17 17 17
3 3 4 3 3 5 2 10 15 16 17 15 16 10 9 3 3 3 5 7 9 12 15 10 5 6 7 3 4 7 5 6 5 7 7 6 4 2 4 5 6 6 8 11 11 9 9 12 13 10 10 11 11 12 12 13 14 15 16 17 16 17 18
7 2 2 4 3 5 6 16 17 21 16 11 3 7 8 4 0 2 4 7 11 8 8 11 6 10 10 7 5 3 5 3 2 4 8 9 10 8 4 3 5 5 4 1 5 9 11 14 12 11 11 12 13 13 12 11 12 15 16 17 17 17 18
7 6 2 3 5 3 8 16 21 22 15 2 9 11 6 3 2 2 4 3 4 6 11 7 6 1 3 5 1 4 5 8 10 9 6 4 5 8 11 8 5 3 3 2 6 10 11 9 8 10 10 12 13 14 14 13 15 17 17 16 16 16 16
9 4 2 5 6 2 13 18 18 16 4 5 5 6 13 3 4 3 3 5 4 5 8 8 9 6 4 5 3 6 7 5 5 8 10 11 12 11 8 12 14 6 5 4 7 9 9 7 1 4 8 11 12 12 12 16 19 18 16 16 15 14 12
3 3 2 3 6 4 13 19 13 10 8 4 9 14 17 6 0 4 3 6 5 10 11 8 10 9 6 6 7 6 7 8 10 10 12 12 11 12 14 15 13 10 8 7 7 4 5 4 2 4 5 8 10 10 13 18 16 13 10 8 9 9 9
7 4 6 6 3 7 9 9 5 10 7 9 13 11 13 9 3 1 7 4 4 7 13 10 8 8 8 7 6 8 10 9 8 9 9 9 10 10 9 8 10 10 9 8 9 8 7 6 6 2 6 10 7 6 10 2 2 1 3 5 6 8 9
4 7 6 3 1 4 5 5 7 9 10 11 13 12 8 7 3 2 7 5 4 6 12 11 11 11 9 8 8 10 7 9 10 10 10 9 9 10 10 10 10 10 10 9 8 9 8 9 8 7 3 5 6 8 6 4 5 4 4 4 5 5 7
2 3 4 4 1 2 4 4 6 7 12 12 14 15 12 10 7 3 6 5 5 4 6 14 8 8 6 9 8 9 9 9 8 7 8 9 8 7 7 8 9 7 8 9 9 9 9 9 7 7 7 2 6 6 2 3 6 8 8 8 9 10 9
4 3 2 4 2 0 4 6 8 9 11 13 12 13 13 13 11 4 4 8 8 9 10 13 11 8 6 11 9 8 8 9 8 8 8 8 8 8 9 7 5 7 7 8 8 8 8 8 6 7 6 6 5 5 5 4 2 5 7 8 9 9 11
3 3 4 4 4 4 2 5 7 9 10 12 12 12 13 14 12 6 6 7 11 10 12 9 12 11 9 11 10 10 9 9 8 8 8 7 7 7 5 5 4 5 7 6 5 5 5 6 6 5 5 6 6 6 5 4 4 3 5 8 9 10 12
1 2 2 3 5 2 5 6 6 5 5 6 11 15 15 15 13 10 12 12 9 11 10 9 12 14 10 9 10 11 9 10 9 9 8 7 6 5 6 5 5 5 3 3 2 3 4 6 7 7 8 8 8 8 7 3 1 2 0 3 6 9 10
3 3 2 4 7 2 1 4 5 6 7 7 11 11 11 13 10 8 11 12 11 11 10 11 13 13 9 8 10 12 10 9 9 8 7 6 6 5 4 4 4 4 4 4 3 3 3 4 4 5 5 6 7 6 6 6 6 1 4 4 3 1 3
4 3 4 1 5 7 2 1 2 4 5 6 8 7 8 11 10 8 7 10 13 13 11 10 13 11 10 8 10 12 10 9 8 8 8 8 7 7 5 6 7 5 4 4 4 4 4 3 3 3 3 3 4 5 6 7 6 2 2 4 4 6 8
3 4 4 6 4 6 3 1 2 5 6 6 7 6 6 8 8 8 9 9 9 9 10 10 9 9 10 8 11 12 10 9 9 9 8 8 7 7 8 8 8 8 8 8 7 7 5 4 4 5 5 5 4 5 5 5 5 4 4 5 6 7 8
4 1 2 5 9 8 5 4 5 5 6 5 5 5 5 6 8 6 10 9 8 7 8 10 8 8 11 11 11 11 10 9 8 8 8 9 10 10 10 10 10 8 7 6 5 5 5 6 6 5 5 5 5 5 5 5 5 6 6 6 8 8 8
Wind_Direction
188 203 177 201 150 205 210 131 204 212 133 182 238 273 228 158 11 252 168 277 293 305 316 249 207 195 206 210 212 209 213 216 202 201 201 201 202 203 201 203 203 203 203 203 203 201 201 199 197 197 196 193 193 191 190 194 196 191 192 192 193 195 197
232 209 181 192 187 150 124 191 214 91 184 201 188 220 246 234 238 260 197 221 277 194 254 286 207 203 216 205 211 214 216 207 196 202 202 200 201 203 203 203 200 200 201 201 202 204 202 199 197 199 198 195 194 191 191 191 191 192 195 194 195 195 196
208 206 190 273 253 193 211 212 158 168 195 214 231 122 230 218 232 264 287 251 238 193 238 200 222 203 214 220 220 218 218 200 203 206 206 204 204 206 204 203 200 203 204 204 202 203 204 202 200 200 198 193 192 194 194 192 191 194 192 192 195 196 196
203 182 152 217 219 252 255 91 184 184 133 202 174 203 157 151 263 249 279 164 245 190 205 190 198 210 213 208 210 217 220 206 202 205 203 203 205 207 205 201 200 201 203 203 202 203 203 203 202 202 196 192 193 195 192 194 198 196 193 195 195 197 198
162 218 181 203 202 205 210 211 204 209 216 254 193 155 190 203 187 199 229 264 254 245 206 176 197 199 216 211 214 217 219 210 205 204 202 202 204 207 204 201 200 201 203 204 204 204 204 203 201 196 189 191 196 192 194 195 193 193 196 197 195 199 196
206 222 192 202 206 203 208 200 211 198 179 134 180 238 64 139 187 220 178 250 267 265 199 189 191 211 204 206 201 213 219 214 207 208 206 204 206 208 203 200 200 200 204 204 203 203 204 201 198 192 193 195 193 192 197 194 194 195 197 195 197 196 196
211 209 212 203 208 203 208 189 213 190 174 129 172 213 234 355 248 128 193 242 258 228 192 199 193 201 209 210 200 211 219 220 215 210 208 208 206 205 199 201 201 202 203 203 201 199 198 197 195 193 192 192 194 196 194 193 194 198 197 196 194 192 196
290 274 256 249 225 202 212 213 198 187 201 194 216 213 183 188 235 209 325 244 279 239 175 210 205 195 203 216 193 207 216 223 226 221 217 211 210 210 205 201 200 202 204 202 200 197 197 199 197 193 192 196 196 193 193 193 198 199 196 193 191 194 198
255 265 315 283 242 184 211 206 208 207 204 205 201 107 121 218 197 173 152 243 259 282 285 204 237 307 194 209 213 201 216 225 222 223 222 219 215 213 205 199 199 199 200 199 198 196 195 196 196 194 195 195 193 195 194 195 200 196 193 189 190 195 198
218 212 214 218 217 224 314 228 216 211 205 203 178 220 168 215 260 161 202 237 250 277 301 219 208 212 220 231 221 223 213 215 217 223 218 215 222 226 208 204 201 198 198 197 196 195 196 196 194 194 194 194 194 195 197 197 195 190 192 188 192 194 196
255 271 296 239 160 166 214 218 213 222 218 206 203 191 190 216 201 210 215 156 230 276 269 292 267 252 233 232 232 229 228 230 222 215 214 207 206 206 204 208 206 202 196 197 197 196 197 196 194 193 193 193 194 195 197 196 194 190 188 187 191 193 195
251 290 279 286 225 211 208 209 224 223 216 212 211 205 222 134 138 242 186 195 196 240 263 266 275 267 258 260 247 232 238 229 210 213 214 214 205 200 195 204 208 201 200 200 196 198 199 198 195 196 195 194 193 193 195 193 190 187 187 190 191 194 194
310 299 287 283 271 240 217 203 211 217 217 211 214 221 196 165 204 227 201 193 195 230 225 225 239 235 239 241 229 219 223 236 242 235 220 214 213 208 199 200 197 199 203 201 200 198 198 196 194 195 195 197 196 197 194 189 186 189 187 187 191 193 196
308 307 300 293 263 254 247 216 208 209 209 218 219 217 201 200 218 214 216 190 207 202 213 215 229 238 231 241 222 269 215 226 226 219 226 225 221 215 208 201 195 194 199 202 201 196 196 196 196 195 194 192 192 191 192 190 192 192 182 188 190 192 197
306 303 304 306 279 240 242 248 220 208 210 216 219 217 206 206 233 227 224 192 231 250 225 217 220 237 269 354 255 232 225 208 196 205 215 222 226 224 210 202 196 192 197 201 201 202 200 198 197 194 193 194 194 194 191 189 191 186 184 191 193 195 200
309 309 350 330 327 307 248 236 241 222 208 214 216 215 197 179 206 221 229 229 242 259 240 248 276 284 248 229 234 242 247 208 200 196 217 215 215 217 214 202 193 190 190 193 192 194 201 202 199 195 194 194 190 194 191 192 191 183 187 191 195 200 203
261 283 316 320 314 315 275 234 224 220 220 213 214 221 206 201 189 198 216 228 212 226 209 194 246 239 246 253 231 244 258 244 202 207 214 216 209 203 203 204 197 195 197 198 197 197 195 196 198 200 196 189 191 193 191 195 181 181 189 193 196 201 198
290 295 314 309 302 247 233 239 212 207 216 208 206 216 218 220 181 215 211 213 218 225 157 180 222 229 232 226 242 202 206 227 235 240 233 223 212 204 197 196 199 201 200 201 200 198 196 197 196 198 194 192 196 192 192 182 177 186 189 193 196 198 194
280 295 317 314 239 243 260 338 186 203 212 194 199 208 210 217 211 216 195 229 236 227 193 199 215 270 285 272 211 246 260 226 218 222 226 235 232 213 204 208 214 216 214 206 202 207 212 204 199 194 195 200 191 185 177 175 186 187 191 193 196 196 194
266 288 216 240 235 244 307 308 332 262 182 183 179 218 266 269 227 202 199 203 219 195 192 181 173 162 181 217 30 298 314 220 217 219 236 231 207 215 209 203 209 201 194 199 200 205 204 196 193 192 194 187 177 191 183 185 188 190 191 193 197 194 196
239 237 258 251 290 307 294 272 28 7 331 243 180 204 247 236 202 179 196 205 202 181 169 161 180 171 125 56 348 315 328 322 283 227 239 215 214 231 258 237 223 213 206 195 197 190 176 183 190 196 194 183 190 184 182 189 187 191 191 195 197 194 196
202 253 283 294 299 245 275 306 312 336 326 322 286 185 238 272 237 187 192 178 181 158 143 156 167 130 76 60 319 301 328 340 329 312 283 246 209 225 222 213 216 198 202 214 196 169 178 186 191 192 187 183 185 185 189 186 187 191 192 200 198 195 198
224 216 219 226 245 251 193 329 333 325 325 314 305 235 222 261 212 192 156 172 168 158 151 161 142 94 116 198 253 277 310 326 346 334 342 344 349 267 247 232 224 213 190 184 182 181 183 191 196 183 173 174 178 187 190 187 189 191 197 201 197 199 202
225 175 209 264 231 273 333 342 330 322 316 314 73 212 232 255 250 155 142 180 163 171 148 144 139 141 151 191 236 276 315 276 320 14 355 351 354 353 16 2 326 321 332 132 144 178 186 202 188 171 171 172 178 188 192 189 190 198 202 202 200 203 204
196 175 242 299 300 287 347 339 330 314 299 195 159 204 240 225 193 123 144 184 158 138 136 147 106 280 185 174 206 342 357 20 7 5 6 350 357 5 360 10 32 20 354 206 205 197 206 200 171 171 168 173 186 191 185 184 198 204 205 202 201 205 206
191 138 154 230 250 297 355 335 320 306 282 162 187 282 302 251 153 137 159 131 102 111 88 102 105 101 74 81 68 48 37 38 8 7 8 10 10 7 14 12 10 31 71 36 360 349 352 7 349 194 175 185 196 191 186 198 207 207 204 203 204 206 201
46 65 69 312 287 258 10 336 323 24 37 290 296 306 308 311 227 128 102 110 128 109 89 81 103 105 82 68 61 53 47 47 33 19 15 19 17 8 6 3 5 8 26 60 74 45 2 13 65 161 191 207 205 198 200 210 213 213 211 208 203 200 190
147 148 173 203 229 305 342 353 329 336 331 310 306 302 290 297 298 144 103 57 93 110 112 113 92 89 92 68 60 54 42 38 38 37 32 27 19 17 17 26 20 27 36 31 34 29 19 17 11 8 176 195 207 213 229 267 41 96 152 169 167 175 187
156 181 181 212 37 330 325 327 297 302 322 334 324 325 312 285 304 308 97 98 76 98 106 96 97 82 70 77 59 69 51 48 41 39 33 25 22 19 19 21 30 41 37 27 26 27 20 13 8 6 1 186 189 205 219 168 164 148 151 152 168 188 195
93 38 78 119 105 286 326 315 301 337 348 341 349 353 336 311 317 331 105 103 97 88 107 103 77 90 112 92 76 69 59 57 48 44 40 35 31 33 33 29 30 42 44 39 33 25 16 11 9 12 4 350 196 218 234 212 182 175 169 171 177 185 186
120 221 191 132 172 50 7 331 335 6 18 350 348 353 342 320 316 351 53 95 86 85 74 85 96 86 88 90 86 83 76 65 58 52 50 41 34 37 40 25 31 41 49 48 38 33 20 360 4 10 15 18 2 332 312 304 250 176 177 181 188 188 190
148 171 155 155 132 113 24 11 360 359 5 346 352 359 345 326 312 358 18 57 70 74 70 71 84 76 60 68 67 64 58 57 53 53 53 48 47 41 42 25 28 54 58 56 40 28 7 344 350 351 5 7 356 342 328 331 329 285 203 195 193 201 198
114 81 126 134 130 82 30 8 14 353 5 331 5 8 346 320 330 6 39 43 53 66 79 80 82 72 53 57 67 70 63 56 50 46 47 48 47 36 33 26 26 35 40 55 60 43 14 353 356 0 2 358 353 349 336 317 123 108 256 250 236 211 199
151 161 210 155 130 165 295 353 352 1 351 2 31 6 334 318 328 350 53 53 51 60 57 71 77 80 71 58 67 68 63 57 53 48 47 47 44 35 26 31 33 24 19 12 7 14 13 355 357 1 1 357 350 346 342 340 329 128 144 122 124 203 272
201 172 144 162 118 111 181 212 17 37 8 36 52 28 325 313 327 347 38 64 62 57 54 52 72 75 74 67 72 70 61 55 53 52 47 39 27 24 16 29 21 26 11 4 5 7 346 343 354 5 12 8 0 356 359 354 353 359 73 90 52 23 17
272 181 178 158 142 140 157 151 77 63 55 42 47 40 336 326 330 352 28 32 56 72 68 59 63 82 79 71 72 72 61 53 52 50 46 42 35 29 31 35 35 34 30 28 26 12 352 4 3 358 4 6 12 8 10 12 15 23 33 59 67 62 59
235 262 152 140 125 121 131 134 99 64 39 40 34 19 356 341 341 1 42 34 21 34 67 74 58 62 79 70 66 65 64 50 44 47 47 45 40 36 31 31 31 35 36 38 31 24 26 31 29 19 16 10 10 8 16 22 27 34 43 67 86 85 88